Overview Statistics Trail Chart Weather Telemetry Raw packets
 

This is the latest recevied weather packets stored in our database for station/object K7KAR-2. If no packets are shown the sender has not sent any weather packets the latest 10 day(s).

<< 90 91 92 93 94 95 96 >>
Time Temp. Humidity Pressure Rain* Wind** Luminosity Snow
1787945083 23.33° C 47% 1016.3 hPa 0 mm - 111 W/m² -
1787944779 23.89° C 44% 1016 hPa 0 mm - 113 W/m² -
1787944475 23.89° C 43% 1016.1 hPa 0 mm - 112 W/m² -
1787944171 24.44° C 42% 1015.9 hPa 0 mm - 101 W/m² -
1787943870 25° C 40% 1015.6 hPa 0 mm - 98 W/m² -
1787943566 25° C 37% 1015.7 hPa 0 mm - 106 W/m² -
1787943261 25° C 39% 1015.7 hPa 0 mm - 111 W/m² -
1787942960 25° C 38% 1015.7 hPa 0 mm - 106 W/m² -
1787942657 25° C 38% 1015.7 hPa 0 mm - 106 W/m² -
1787942356 25° C 38% 1015.7 hPa 0 mm - 112 W/m² -
1787942051 25° C 38% 1015.8 hPa 0 mm - 118 W/m² -
1787941746 25° C 38% 1015.7 hPa 0 mm - 123 W/m² -
1787941445 25° C 37% 1015.9 hPa 0 mm - 131 W/m² -
1787941144 25° C 38% 1015.8 hPa 0 mm - 149 W/m² -
1787940839 24.44° C 40% 1015.7 hPa 0 mm - 147 W/m² -
1787940537 24.44° C 42% 1015.6 hPa 0 mm - 138 W/m² -
1787940231 23.89° C 42% 1015.6 hPa 0 mm - 138 W/m² -
1787939926 23.33° C 46% 1015.7 hPa 0 mm - 123 W/m² -
1787939625 23.33° C 48% 1015.9 hPa 0 mm - 109 W/m² -
1787939320 22.78° C 48% 1016 hPa 0 mm - 108 W/m² -
1787939015 22.78° C 49% 1015.6 hPa 0 mm - 127 W/m² -
1787938713 22.78° C 50% 1015.7 hPa 0 mm - 162 W/m² -
1787938411 22.78° C 49% 1015.9 hPa 0 mm - 162 W/m² -
1787938106 22.78° C 49% 1015.6 hPa 0 mm - 159 W/m² -
1787937800 22.78° C 49% 1015.7 hPa 0 mm - 190 W/m² -

* Rain latest hour (hover to see other rain measurements)
** Current wind speed in m/s (hover to see current wind gust speed)